CW2550 Weather Reports


Display with metric or nautical units.
time (UTC)temp
F
wind
direction
speed
MPH
gust
MPH
rain 1hr
in
rain 24hr
in
rain mn
in
humidity
%
barometer
mb
20260905071553 67 15 1.0 4.0 0.00 0.00 0.00 91 1014.6
20260905070050 67 10 2.0 4.0 0.00 0.00 0.00 91 1014.6
20260905064544 68 5 1.0 3.0 0.00 0.00 0.00 90 1014.5
20260905063050 68 33 1.0 3.0 0.00 0.00 0.00 90 1014.4
20260905061602 68 35 1.0 3.0 0.00 0.00 0.00 89 1014.3
20260905060104 69 36 1.0 3.0 0.00 0.00 0.00 89 1014.4
20260905054555 69 42 1.0 3.0 0.00 0.00 0.00 89 1014.3
20260905053044 70 49 1.0 3.0 0.00 0.00 0.00 89 1014.2
20260905051604 70 360 1.0 3.0 0.00 0.00 0.00 88 1014.0
20260905050057 70 360 1.0 4.0 0.00 0.00 0.00 87 1014.1
20260905044545 71 32 1.0 4.0 0.00 0.00 0.00 87 1013.9
20260905043052 71 32 2.0 4.0 0.00 0.00 0.00 86 1014.0
20260905041556 72 38 1.0 3.0 0.00 0.00 0.00 86 1013.9
20260905040049 72 38 1.0 3.0 0.00 0.00 0.00 85 1014.1
20260905034554 73 38 2.0 4.0 0.00 0.00 0.00 84 1014.2
20260905033104 73 30 3.0 6.0 0.00 0.00 0.00 84 1014.1
20260905031549 74 24 2.0 5.0 0.00 0.00 0.00 83 1013.9
20260905030048 75 26 3.0 5.0 0.00 0.00 0.00 83 1013.8
20260905024559 75 26 2.0 4.0 0.00 0.00 0.00 83 1013.9
20260905023052 76 26 2.0 4.0 0.00 0.00 0.00 83 1013.7
20260905021548 76 5 2.0 4.0 0.00 0.00 0.00 83 1013.3
20260905020045 76 344 2.0 4.0 0.00 0.00 0.00 83 1013.1
20260905014553 77 344 1.0 3.0 0.00 0.00 0.00 83 1012.9
20260905013110 78 343 1.0 3.0 0.00 0.00 0.00 81 1012.9
20260905011545 79 343 1.0 3.0 0.00 0.00 0.00 80 1012.5
20260905010059 80 343 0.0 3.0 0.00 0.00 0.00 78 1012.5
20260905004554 80 343 1.0 3.0 0.00 0.00 0.00 77 1012.3
20260905003045 81 343 2.0 3.0 0.00 0.00 0.00 76 1012.2
20260905001544 83 360 2.0 4.0 0.00 0.00 0.00 75 1012.2
20260905000055 83 360 2.0 4.0 0.00 0.00 0.00 74 1012.1
20260904234554 84 351 2.0 4.0 0.00 0.00 0.00 74 1012.1
20260904233050 85 332 2.0 4.0 0.00 0.00 0.00 74 1012.1
20260904231547 85 323 3.0 5.0 0.00 0.00 0.00 75 1011.9
20260904230100 85 352 3.0 5.0 0.00 0.00 0.00 75 1011.8
20260904224605 86 344 3.0 5.0 0.00 0.00 0.00 75 1011.7
20260904223106 86 346 2.0 4.0 0.00 0.00 0.00 74 1011.5
20260904221602 86 352 3.0 5.0 0.00 0.00 0.00 74 1011.5
20260904220050 86 18 2.0 5.0 0.00 0.00 0.00 74 1011.3
20260904214555 86 5 3.0 5.0 0.00 0.00 0.00 73 1011.2
20260904213101 86 348 3.0 6.0 0.00 0.00 0.00 74 1011.1
20260904211555 86 343 4.0 6.0 0.00 0.00 0.00 75 1011.2
20260904210055 87 350 4.0 9.0 0.00 0.00 0.00 74 1011.1
20260904204549 87 351 4.0 8.0 0.00 0.00 0.00 74 1011.1
20260904203046 87 344 4.0 9.0 0.00 0.00 0.00 74 1011.1
20260904201613 87 5 4.0 6.0 0.00 0.00 0.00 74 1010.9
20260904200108 87 352 3.0 9.0 0.00 0.00 0.00 74 1011.0
20260904194551 88 360 5.0 8.0 0.00 0.00 0.00 73 1011.0
20260904193046 88 343 4.0 8.0 0.00 0.00 0.00 72 1010.9
20260904191552 90 12 2.0 5.0 0.00 0.00 0.00 69 1010.9
20260904190048 91 350 2.0 4.0 0.00 0.00 0.00 66 1011.0
20260904184553 90 342 1.0 3.0 0.00 0.00 0.00 68 1011.1
20260904183046 90 0 0.0 3.0 0.00 0.00 0.00 68 1011.0
20260904181549 89 0 2.0 6.0 0.00 0.00 0.00 69 1011.0
20260904180050 89 0 1.0 5.0 0.00 0.00 0.00 69 1011.0
20260904174551 88 0 1.0 4.0 0.00 0.00 0.00 71 1011.0
20260904173046 87 355 2.0 5.0 0.00 0.00 0.00 72 1010.9
20260904171615 87 0 0.0 2.0 0.00 0.00 0.00 73 1010.9
20260904170051 87 0 0.0 3.0 0.00 0.00 0.00 75 1010.7
20260904164549 86 0 0.0 3.0 0.00 0.00 0.00 75 1010.7
20260904163052 86 344 2.0 3.0 0.00 0.00 0.00 75 1010.6
20260904161559 86 0 0.0 2.0 0.00 0.00 0.00 75 1010.6
20260904160056 85 0 0.0 0.0 0.00 0.00 0.00 75 1010.3
20260904154550 84 0 0.0 2.0 0.00 0.00 0.00 76 1010.5
20260904153108 84 273 0.0 3.0 0.00 0.00 0.00 76 1010.5
20260904151548 83 0 0.0 0.0 0.00 0.00 0.00 77 1010.5
20260904150051 81 0 0.0 3.0 0.00 0.00 0.00 82 1010.6
20260904144545 80 216 1.0 6.0 0.00 0.00 0.00 83 1010.5
20260904143112 79 198 3.0 6.0 0.00 0.00 0.00 84 1010.3
20260904141549 78 0 1.0 5.0 0.00 0.00 0.00 86 1010.4
20260904140045 77 0 0.0 5.0 0.00 0.00 0.00 88 1010.5
20260904134558 75 198 2.0 5.0 0.00 0.00 0.00 89 1010.4
20260904133106 75 206 3.0 7.0 0.00 0.00 0.00 90 1010.5
20260904131552 74 208 3.0 6.0 0.00 0.00 0.00 90 1010.3
20260904130055 73 193 3.0 7.0 0.00 0.00 0.00 91 1010.2
20260904124542 72 203 4.0 8.0 0.00 0.04 0.00 91 1010.0
20260904123053 72 209 3.0 7.0 0.00 0.04 0.00 91 1009.8
20260904121547 72 195 0.0 7.0 0.00 0.04 0.00 91 1009.7
20260904120049 72 192 3.0 7.0 0.00 0.04 0.00 91 1009.5
20260904114545 72 210 2.0 4.0 0.00 0.22 0.00 91 1009.5
20260904113056 72 211 2.0 4.0 0.00 0.22 0.00 91 1009.4
20260904111550 73 211 0.0 2.0 0.00 0.22 0.00 91 1009.4
20260904110046 73 0 0.0 2.0 0.00 0.22 0.00 91 1009.4
20260904104552 73 192 3.0 6.0 0.00 0.22 0.00 91 1009.2
20260904103049 73 198 3.0 5.0 0.00 0.22 0.00 90 1009.3
20260904101557 74 198 2.0 4.0 0.00 0.22 0.00 90 1009.3
20260904100041 74 197 1.0 4.0 0.00 0.22 0.00 90 1009.1
20260904094554 74 205 2.0 6.0 0.00 0.22 0.00 89 1009.1
20260904093049 74 207 3.0 8.0 0.00 0.22 0.00 89 1009.0
20260904091557 74 202 4.0 7.0 0.00 0.22 0.00 90 1008.9
20260904090054 74 201 4.0 7.0 0.00 0.22 0.00 89 1008.8
20260904084559 74 207 3.0 8.0 0.00 0.22 0.00 90 1008.7
20260904083049 74 198 4.0 9.0 0.00 0.22 0.00 90 1008.6
20260904081553 74 198 5.0 9.0 0.00 0.22 0.00 90 1008.5
20260904080113 74 205 3.0 7.0 0.00 0.22 0.00 91 1008.5
20260904074548 74 221 3.0 8.0 0.00 0.22 0.00 91 1008.5
20260904073057 74 172 3.0 8.0 0.00 0.22 0.00 92 1008.6